www.pogodaiklimat.ru

Погода и климат >> Архив погоды >> Франция >> Руанский


ПОГОДА в Руанском

  • Прогноз погоды в Руанском
  • Монитор погоды в Руанском

АРХИВ ПОГОДЫ в Руанском

Время (UTC), дата Ветер
(напр.,м/с)
 
Видим.   Явления Облачность Т
(С)
Тd
(С)
f
(%)
Тe
(С)
Тes
(С)
Комфортность P
(гПа)
Po
(гПа)
Тmin
(С)
Tmax
(С)
R
(мм)
R24
(мм)
S
(см)
19 18.08 З 1-2
{4}
20 км н/о +16.4 +10.3 67 +17 +17 1012.2 994.3
20 18.08 З 1-2
{2}
20 км н/о +14.2 +10.6 79 +15 +15 1013.0 995.0 0.0
21 18.08 З 2-2
{4}
20 км н/о +13.7 +11.2 85 +13 +13 1013.3 995.3 0.0 0
22 18.08 З 2-2
{3}
20 км н/о +13.8 +10.4 80 +14 +14 1014.0 995.9
23 18.08 З 1-2
{2}
20 км н/о +12.4 +10.1 86 +13 +13 1014.8 996.6
00 19.08 ЮЗ 2-2
{5}
19 км н/о +12.4 +10.3 87 +12 +12 1015.2 997.0 0
01 19.08 ЮЗ 1-2
{2}
19 км н/о +11.8 +10.4 91 +12 +12 1015.5 997.3
02 19.08 ЮЗ 1-1
{2}
19 км н/о +11.8 +10.4 91 +12 +12 1015.7 997.5
03 19.08 штиль 0-1
{3}
18 км н/о +10.7 +9.9 95 +10 +10 1016.1 997.8 0
04 19.08 штиль 0-1
{1}
17 км н/о +11.0 +10.7 98 +10 +10 1016.2 997.9
05 19.08 Ю 1-1
{2}
16 км н/о +10.5 +9.6 94 +11 +11 1016.6 998.3
06 19.08 Ю 2
{3}
10 км н/о +11.7 +11.2 97 +11 +11 1017.2 999.0 +10.3 +18.4 0
07 19.08 Ю 1-2
{2}
19 км н/о +14.6 +12.6 88 +16 +16 1017.1 999.1
08 19.08 ЮЗ 1-2
{3}
19 км н/о +17.4 +13.7 79 +19 +19 1017.4 999.5
09 19.08 З 3-4
{7}
19 км н/о +17.8 +12.0 69 +18 +18 1017.8 999.9 0
10 19.08 З 2-4
{4}
19 км н/о +18.2 +11.3 64 +19 +19 1018.2 1000.3
11 19.08 З 2-3
{4}
20 км н/о +19.1 +11.1 60 +21 +21 комфорт 1018.3 1000.5
12 19.08 З 4-4
{8}
20 км н/о +18.5 +11.1 62 +19 +19 1018.8 1001.0 0
13 19.08 З 2-4
{5}
19 км н/о +20.5 +10.0 51 +23 +23 комфорт 1018.9 1001.2
14 19.08 СЗ 3-5
{5}
19 км н/о +18.8 +11.6 63 +20 +20 1019.2 1001.4
15 19.08 З 4-4
{9}
20 км н/о +19.3 +11.3 60 +20 +20 1019.1 1001.3 0
16 19.08 З 2-4
{5}
20 км н/о +20.6 +11.2 55 +23 +23 комфорт 1019.2 1001.5
17 19.08 З 2-4
{4}
19 км н/о +19.7 +10.4 55 +21 +21 комфорт 1019.5 1001.7
18 19.08 З 4
{8}
20 км н/о +18.7 +9.7 56 +19 +19 1019.8 1001.9 +11.8 +21.3 0
19 19.08 З 1-2
{4}
20 км н/о +16.5 +10.1 66 +17 +17 1020.2 1002.2
20 19.08 З 1-1
{2}
20 км н/о +13.5 +9.9 79 +14 +14 1021.0 1002.8 0.0
21 19.08 З 1-1
{2}
19 км н/о +11.4 +9.6 89 +12 +12 1021.8 1003.4 0.0 0
22 19.08 штиль 0
{1}
20 км н/о +10.9 +10.3 96 +10 +10 1022.2 1003.8
23 19.08 штиль 0-1
{1}
19 км н/о +10.5 +10.2 98 +10 +10 1022.4 1004.0
00 20.08 З 1-1
{2}
20 км н/о +10.6 +10.3 98 +10 +10 1022.4 1004.0 0
01 20.08 З 1-1
{1}
20 км н/о +10.4 +9.8 96 +10 +10 1022.4 1004.0
02 20.08 З 1-1
{2}
20 км н/о +9.5 +8.9 96 +10 +10 1022.2 1003.7
03 20.08 З 2-1
{3}
20 км н/о +11.9 +11.3 96 +11 +11 1022.2 1003.9 0
04 20.08 Ю 1-1
{1}
8000 м н/о +10.5 +9.6 94 +11 +11 1022.5 1004.1
05 20.08 штиль 0-1
{1}
1400 м дымка н/о +9.3 +9.2 99 +8 +8 1023.3 1004.8 0.0
06 20.08 штиль 0
{1}
13 км н/о +11.1 +11.1 100 +10 +10 1023.8 1005.4 +9.2 +18.7 0.0 0
07 20.08 Ю 1-1
{1}
17 км н/о +14.2 +12.9 92 +15 +15 1024.0 1005.8
08 20.08 З 1-2
{2}
19 км н/о +15.7 +13.2 85 +16 +16 1024.2 1006.1
09 20.08 З 3-3
{5}
19 км н/о +17.2 +12.7 75 +17 +17 1024.3 1006.3 0
10 20.08 СЗ 2-3
{3}
19 км н/о +18.4 +11.2 63 +20 +20 1024.6 1006.6
11 20.08 СЗ 1-3
{3}
19 км н/о +19.5 +10.2 55 +22 +22 комфорт 1024.6 1006.7
12 20.08 З 3-3
{7}
20 км н/о +19.3 +10.3 56 +20 +20 1024.6 1006.7 0
13 20.08 З 2-4
{4}
20 км н/о +20.4 +10.2 52 +23 +23 комфорт 1024.8 1007.0
14 20.08 З 2-4
{5}
18 км н/о +20.7 +7.0 41 +22 +22 комфорт 1024.9 1007.1
15 20.08 З 4-4
{9}
19 км н/о +20.8 +7.8 43 +22 +22 комфорт 1025.4 1007.6 0
16 20.08 СЗ 4-4
{8}
20 км н/о +20.4 +8.7 47 +22 +22 комфорт 1025.7 1007.8
17 20.08 З 3-3
{8}
20 км н/о +19.8 +8.2 47 +21 +21 комфорт 1025.9 1008.0
18 20.08 СЗ 2
{6}
20 км н/о +18.3 +9.4 56 +19 +19 1026.6 1008.6 +11.2 +21.4 0
19 20.08 СЗ 1-2
{3}
20 км н/о +16.1 +9.3 64 +17 +17 1027.2 1009.0
20 20.08 СЗ 1-1
{1}
20 км н/о +14.2 +8.4 68 +15 +15 1027.8 1009.5 0.0
21 20.08 СЗ 1-1
{2}
20 км н/о +12.9 +8.4 74 +13 +13 1028.2 1009.8 0.0 0
22 20.08 СЗ 1-1
{1}
20 км н/о +11.7 +8.4 80 +12 +12 1028.6 1010.1
23 20.08 С 1-1
{1}
20 км н/о +11.4 +8.6 83 +12 +12 1028.6 1010.1
00 21.08 С 1-1
{2}
20 км н/о +9.5 +8.3 92 +10 +10 1028.7 1010.1 0
01 21.08 штиль 0
{1}
19 км н/о +9.2 +8.4 95 +8 +8 1028.6 1010.0
02 21.08 штиль 0 19 км н/о +8.4 +7.8 96 +7 +7 1028.7 1010.0
03 21.08 штиль 0 15 км н/о +7.8 +7.7 99 +7 +7 1028.6 1009.9 0
04 21.08 штиль 0 17 км н/о +7.8 +7.5 98 +7 +7 1028.6 1009.9
05 21.08 штиль 0
{1}
2200 м дымка н/о +8.2 +8.2 100 +7 +7 1029.0 1010.3
06 21.08 штиль 0
{1}
16 км н/о +10.6 +10.6 100 +10 +10 1029.0 1010.5 +7.4 +18.3 0
07 21.08 штиль 0-1
{1}
20 км н/о +13.2 +11.8 91 +13 +13 1029.2 1010.8
08 21.08 В 1-1
{1}
20 км н/о +16.4 +12.7 79 +18 +18 1029.0 1010.9
09 21.08 ЮВ 2-2
{4}
20 км н/о +17.7 +10.6 63 +18 +18 1028.9 1010.8 0
10 21.08 ЮВ 1-2
{2}
20 км н/о +19.4 +10.4 56 +22 +22 комфорт 1028.5 1010.5
11 21.08 В 1-2
{2}
20 км н/о +20.9 +11.8 56 +25 +25 комфорт 1027.8 1009.9
12 21.08 ЮЗ 1-2
{4}
20 км н/о +21.0 +10.2 50 +24 +24 комфорт 1027.1 1009.3 0
13 21.08 Ю 1-2
{2}
20 км н/о +22.9 +10.0 44 +25 +25 комфорт 1026.8 1009.1
14 21.08 Ю 1-2
{2}
20 км н/о +22.9 +9.3 42 +24 +24 комфорт 1026.1 1008.4
15 21.08 Ю 1-2
{4}
20 км н/о +23.2 +8.8 40 +25 +25 комфорт 1025.9 1008.2 0
16 21.08 СВ 1-2
{2}
12 км н/о +22.8 +9.6 43 +24 +24 комфорт 1025.7 1008.0
17 21.08 В 1-1
{2}
14 км н/о +22.3 +9.1 43 +24 +24 комфорт 1025.4 1007.7
18 21.08 В 1
{2}
н/о н/о +21.5 +10.0 48 +23 +23 комфорт 1025.3 1007.5 +10.7 +24.0 0
19 21.08 В 1-1
{1}
17 км н/о +17.6 +9.2 58 +19 +19 1025.6 1007.6
20 21.08 С 2-3
{3}
20 км н/о +17.2 +11.9 71 +18 +18 1026.1 1008.0
21 21.08 С 3-2
{5}
20 км н/о +15.8 +11.4 75 +15 +15 1026.2 1008.1 0
22 21.08 С 1-2
{2}
20 км н/о +14.9 +11.3 79 +15 +15 1026.4 1008.2
23 21.08 С 1-2
{2}
20 км н/о +13.4 +11.3 87 +14 +14 1026.6 1008.3
00 22.08 СЗ 1-1
{2}
20 км н/о +12.8 +10.7 87 +13 +13 1026.5 1008.2 0
01 22.08 С 1-1
{2}
20 км н/о +12.8 +10.3 85 +14 +14 1026.2 1007.9
02 22.08 С 1-2
{2}
20 км н/о +13.1 +11.3 89 +13 +13 1026.0 1007.7
03 22.08 С 2-1
{3}
16 км н/о +13.0 +11.6 91 +12 +12 1025.9 1007.6 0
04 22.08 СВ 1-1
{2}
16 км н/о +12.2 +10.4 89 +13 +13 1026.0 1007.6
05 22.08 СВ 1-1
{1}
19 км н/о +11.8 +9.9 88 +12 +12 1026.1 1007.7
06 22.08 СВ 1
{2}
19 км н/о +13.6 +10.4 81 +15 +15 1026.3 1008.0 +10.8 +21.5 0
07 22.08 штиль 0-1
{1}
19 км н/о +17.2 +12.1 72 +17 +17 1026.5 1008.4
08 22.08 СВ 1-1
{1}
20 км н/о +19.3 +10.8 58 +22 +22 комфорт 1026.5 1008.6
09 22.08 С 2-2
{4}
19 км н/о +21.0 +8.6 45 +23 +23 комфорт 1026.6 1008.8 0
10 22.08 СЗ 1-2
{2}
18 км н/о +22.3 +9.8 45 +24 +24 комфорт 1026.6 1008.8
11 22.08 З 1-2
{2}
19 км н/о +23.0 +10.1 44 +25 +25 комфорт 1026.3 1008.6
12 22.08 СЗ 2-2
{5}
20 км н/о +23.7 +10.0 42 +25 +25 комфорт 1025.9 1008.2 0
13 22.08 СВ 1-2
{3}
19 км н/о +24.5 +8.8 37 +25 +25 комфорт 1025.5 1007.9
14 22.08 В 1-2
{3}
19 км н/о +24.8 +8.3 35 +25 +25 комфорт 1025.3 1007.7
15 22.08 З 2-3
{5}
19 км н/о +25.2 +8.2 34 +26 +26 жарко 1025.0 1007.4 0
16 22.08 СЗ 1-3
{3}
19 км н/о +25.0 +5.7 29 +25 +25 комфорт 1024.8 1007.2
17 22.08 С 3-4
{4}
19 км н/о +22.6 +12.5 53 +25 +25 комфорт 1024.9 1007.2
18 22.08 С 3
{8}
20 км н/о +20.9 +12.6 59 +24 +24 комфорт 1025.3 1007.5 +13.7 +25.7 0
19 22.08 С 2-3
{4}
20 км н/о +18.9 +11.5 62 +20 +20 1025.7 1007.8
20 22.08 СВ 2-2
{3}
20 км н/о +17.3 +11.6 69 +18 +18 1026.4 1008.3
21 22.08 С 2-2
{4}
20 км н/о +15.8 +11.2 74 +16 +16 1026.6 1008.4 0
22 22.08 С 1-2
{2}
20 км н/о +15.3 +11.1 76 +16 +16 1026.7 1008.5
23 22.08 СВ 2-2
{2}
20 км н/о +14.9 +10.7 76 +15 +15 1026.7 1008.5
00 23.08 СВ 2-2
{4}
17 км н/о +12.9 +9.9 82 +12 +12 1026.7 1008.4 0
01 23.08 СВ 1-2
{2}
18 км н/о +13.1 +10.6 85 +13 +13 1026.3 1008.0
02 23.08 СВ 1-1
{2}
15 км н/о +12.7 +10.2 85 +14 +14 1026.2 1007.9
03 23.08 СВ 1-1
{2}
19 км н/о +11.4 +9.6 89 +11 +11 1026.1 1007.7 0
04 23.08 штиль 0-1
{1}
18 км н/о +10.3 +9.8 97 +9 +9 1026.1 1007.6
05 23.08 ЮВ 1-1
{1}
14 км н/о +9.8 +9.2 96 +10 +10 1026.0 1007.5
06 23.08 штиль 0
{2}
19 км н/о +12.2 +11.3 94 +12 +12 1026.0 1007.6 +9.7 +20.8 0
07 23.08 В 1-2
{2}
19 км н/о +17.6 +11.8 69 +19 +19 1025.6 1007.6
08 23.08 В 1-2
{3}
19 км н/о +19.9 +11.4 58 +22 +22 комфорт 1025.3 1007.4
09 23.08 В 3-2
{4}
19 км н/о +22.1 +12.4 54 +25 +25 комфорт 1025.1 1007.4 0
10 23.08 ЮВ 2-3
{3}
19 км н/о +24.3 +12.6 48 +26 +26 жарко 1024.8 1007.2
11 23.08 В 2-3
{3}
19 км н/о +25.3 +10.7 40 +26 +26 жарко 1024.2 1006.7
12 23.08 ЮВ 4-3
{7}
19 км н/о +26.2 +10.8 38 +27 +27 жарко 1023.7 1006.2 0
13 23.08 В 2-3
{4}
19 км н/о +26.4 +9.7 35 +27 +27 жарко 1023.1 1005.6
14 23.08 В 2-3
{4}
9000 м н/о +26.5 +10.2 36 +27 +27 жарко 1022.7 1005.3
15 23.08 В 3-3
{7}
19 км н/о +27.0 +9.4 33 +27 +27 жарко 1022.2 1004.8 0
16 23.08 В 2-3
{5}
18 км н/о +27.0 +9.4 33 +27 +27 жарко 1021.6 1004.2
17 23.08 В 2-3
{3}
30 км н/о +26.5 +9.4 34 +27 +27 жарко 1021.2 1003.8
18 23.08 СВ 3
{5}
19 км н/о +23.9 +10.9 44 +25 +25 комфорт 1021.2 1003.6 +12.4 +27.4 0
19 23.08 В 2-2
{2}
60 км н/о +20.9 +8.5 45 +23 +23 комфорт 1021.4 1003.6
20 23.08 СВ 2-2
{2}
55 км н/о +19.5 +8.8 50 +21 +21 комфорт 1021.4 1003.6 0.0
21 23.08 С 4-2
{4}
45 км н/о +18.8 +10.6 59 +19 +19 1021.5 1003.6 0.0 0
22 23.08 СВ 2-2
{2}
50 км н/о +17.5 +10.8 65 +18 +18 1021.4 1003.4
23 23.08 СВ 2-2
{2}
45 км н/о +16.2 +10.7 70 +17 +17 1021.2 1003.2
00 24.08 СВ 3-2
{4}
40 км н/о +14.6 +10.6 77 +14 +14 1021.0 1002.9 0
01 24.08 СВ 2-2
{2}
30 км н/о +15.6 +11.2 75 +16 +16 1020.7 1002.6
02 24.08 СВ 2-2
{2}
19 км н/о +15.1 +11.1 77 +15 +15 1020.4 1002.3
03 24.08 СВ 3-2
{4}
19 км н/о +13.7 +10.7 82 +13 +13 1020.3 1002.1 0
04 24.08 СВ 1-2
{2}
12 км н/о +13.4 +11.1 86 +14 +14 1019.9 1001.7
05 24.08 СВ 1-2
{2}
10 км н/о +14.3 +11.1 81 +15 +15 1019.7 1001.6
06 24.08 СВ 3
{3}
10 км н/о +16.3 +12.1 76 +16 +16 1019.5 1001.5 +12.8 +23.8 0
07 24.08 В 1-2
{2}
11 км н/о +20.4 +13.4 64 +24 +24 комфорт 1019.4 1001.7
08 24.08 В 2-3
{3}
14 км н/о +23.2 +13.4 54 +26 +26 жарко 1019.3 1001.7
09 24.08 ЮВ 3-2
{5}
13 км н/о +25.1 +13.6 49 +27 +27 жарко 1019.2 1001.8 0
10 24.08 ЮВ 2-3
{3}
13 км н/о +26.7 +13.4 44 +29 +29 жарко 1018.9 1001.5
11 24.08 ЮВ 2-3
{3}
13 км н/о +28.3 +13.0 39 +30 +30 жарко 1018.5 1001.2
12 24.08 В 4-3
{7}
14 км н/о +29.3 +11.4 33 +30 +30 жарко 1018.0 1000.8 0
13 24.08 ЮВ 2-4
{4}
15 км н/о +29.9 +11.9 33 +31 +31 жарко 1017.7 1000.5
14 24.08 Ю 2-3
{3}
9000 м н/о +30.4 +11.4 31 +31 +31 жарко 1017.3 1000.2
15 24.08 Ю 3-3
{9}
10 км н/о +30.3 +11.8 32 +31 +31 жарко 1016.9 999.8 0
16 24.08 ЮВ 1-2
{3}
9000 м н/о +29.9 +9.9 29 +30 +30 жарко 1016.9 999.7
17 24.08 штиль 0-1
{2}
9000 м н/о +26.5 +12.5 42 +28 +28 жарко 1016.7 999.4
18 24.08 СВ 2
{2}
9000 м н/о +26.8 +13.9 45 +29 +29 жарко 1016.5 999.2 +16.3 +30.8 0
19 24.08 СВ 2-2
{2}
8000 м н/о +23.3 +11.7 48 +26 +26 жарко 1016.8 999.3
20 24.08 В 2 7000 м н/о +22.4 +11.5 50 +25 +25 комфорт 1017.1 999.5 0.0
21 24.08 В 3
{5}
8000 м н/о +19.2 +11.7 62 +20 +20 1017.4 999.6 0.0 0
22 24.08 В 2 6000 м н/о +19.5 +12.3 63 +21 +21 комфорт 1017.3 999.5
23 24.08 В 2 8000 м 9/9
[]
+18.2 +12.4 69 +19 +19 1017.4 999.6
00 25.08 В 4
{5}
7000 м 10/0
[]
+17.4 +12.5 73 +17 +17 1017.4 999.5 0
01 25.08 В 1 6000 м н/о +16.3 +12.6 79 +17 +17 1017.4 999.5
02 25.08 В 1 5000 м н/о +15.6 +12.5 82 +16 +16 1017.6 999.6
03 25.08 СВ 2-1
{3}
3200 м дымка н/о +14.8 +13.0 89 +15 +15 1017.7 999.7 0
04 25.08 В 1-1
{1}
35 км н/о +14.7 +12.9 89 +16 +16 1017.8 999.7
05 25.08 В 1-1
{1}
19 км н/о +15.0 +12.9 87 +16 +16 1017.7 999.7
06 25.08 В 2
{2}
19 км н/о +17.2 +13.7 80 +18 +18 1017.9 1000.0 +14.3 +26.6 0
07 25.08 ЮВ 1-1
{1}
19 км н/о +22.8 +15.4 63 +27 +27 душно 1017.9 1000.4
08 25.08 ЮВ 2-2
{2}
19 км н/о +25.3 +14.7 52 +28 +28 жарко 1018.1 1000.7
09 25.08 ЮВ 3
{4}
14 км н/о +28.1 +14.3 43 +30 +30 жарко 1018.1 1000.8 0
10 25.08 ЮВ 2 17 км н/о +29.0 +13.6 39 +31 +31 жарко 1018.0 1000.8
11 25.08 ЮВ 1-2
{3}
16 км н/о +30.6 +12.5 33 +31 +31 жарко 1017.6 1000.5
12 25.08 З 2-2
{5}
19 км н/о +31.2 +11.6 30 +32 +32 жарко 1017.5 1000.4 0
13 25.08 ЮВ 1-2
{3}
19 км н/о +31.8 +9.3 25 +31 +31 жарко 1017.5 1000.4
14 25.08 ЮВ 1-1
{3}
19 км н/о +31.9 +9.4 25 +31 +31 жарко 1017.2 1000.1
15 25.08 С 2-3
{5}
18 км н/о +32.2 +9.7 25 +32 +32 жарко 1017.0 1000.0 0
16 25.08 СВ 1-1
{2}
55 км н/о +32.7 +10.1 25 +32 +32 жарко 1016.8 999.8
17 25.08 СВ 1-1
{3}
19 км н/о +31.0 +12.4 32 +32 +32 жарко 1017.0 999.9

 

Местоположение метеостанции Руанский (Франция): широта 49.38 долгота 1.18 высота над уровнем моря 156 м.

В архиве по умолчанию представлена погода в Руанском за последнюю неделю. Архивные данные за месяц целиком и за предыдущие месяцы, начиная с января 2011 года, Вы можете получить, выбрав интересующий диапазон дат из раскрывающегося списка и нажав кнопку "Ввод!".


*Определитесь, кто Вы:
робот инопланетянин человек

Внимание! Время в таблицах - всемирное. Для получения местного времени необходимо прибавить поправку, которая равна 1 ч.

Смотрите также архив погоды в соседних городах и на ближайших метеорологических станциях:

Погода в Эврё (Франция) (40 км)
Погода в Дьеппе (Франция) (61 км)
Погода в Тусю-ле-Нобле (Франция) (68 км)
Погода в Бове (Франция) (69 км)
Погода в Кормее (Франция) (70 км)
Погода в Довиле (Франция) (73 км)
Погода в Гавр аэропорту (Франция) (81 км)
Погода в Гавре (Франция) (81 км)
Погода в Трапе (Франция) (90 км)
Погода в Аббевилле (Франция) (96 км)

Пояснения к столбцам:

Ветер - указаны скорость ветра в м/с - средняя за 10 мин, порывы в срок и между сроками (в фигурных скобках) и направление, откуда дует ветер: С - северный, СВ - северо-восточный, В - восточный, ЮВ - юго-восточный, Ю - южный, ЮЗ - юго-западный, З - западный, СЗ - северо-западный.
Видимость - горизонтальная дальность видимости в метрах или километрах. При видимости от 1 до 10 км при отсутствии осадков обычно наблюдается дымка, при ухудшении видимости до 1 км и менее - туман. В сухую погоду видимость может ухудшаться дымом, пылью или мглою.
Явления - указаны атмосферные явления, наблюдавшиеся в срок или в последний час перед сроком; фигурными скобками обозначены явления, наблюдавшиеся между сроками (за 1-3 часа до срока); квадратными скобками обозначены град или гололедные отложения с указанием их диаметра в мм.
Облачность - указаны через наклонную черту общая и нижняя облачность в баллах и высота нижней границы облаков в метрах; квадратными скобками обозначены формы облаков: Ci - перистые, Cs - перисто-слоистые, Cc - перисто-кучевые, Ac - высококучевые, As - высокослоистые, Sc - слоисто-кучевые, Ns - слоисто-дождевые, Cu - кучевые, Cb - кучево-дождевые. Подробнее классификацию облаков см. в Атласе облаков (PDF).
T - Температура воздуха - температура, измеренная на высоте 2 м над землей.
Td - Температура точки росы - температура, при понижении до которой содержащийся в воздухе водяной пар достигнет насыщения.
f - Относительная влажность воздуха - влажноcть воздуха, измеренная на высоте 2 м над землей.
Te - Эффективная температура - температура, которую ощущает одетый по сезону человек в тени. Характеристика душности погоды. При расчете учитывается влияние влажности воздуха и скорости ветра на теплоощущения человека.
Tes - Эффективная температура на солнце - температура, которую ощущает человек, с поправкой на солнечный нагрев. Характеристика знойности погоды. Зависит от высоты солнца над горизонтом, облачности и скорости ветра. Ночью, в пасмурную погоду, а также при ветре 12 м/с и более поправка равна нулю.
P - Атмосферное давление - приведенное к уровню моря атмосферное давление.
Po - Атмосферное давление - измеренное на уровне метеостанции атмосферное давление.
Tmin - Минимальная температура - минимум температуры воздуха на высоте 2 м над землей.
Tmax - Максимальная температура - максимум температуры воздуха на высоте 2 м над землей.
R - Количество осадков - Количество выпавших осадков за период времени, мм. При наведении курсора мыши на число - период времени, за который выпало указанное количество осадков.
R24 - Количество осадков - Количество выпавших осадков за 24 часа, мм.
S - Снежный покров - Высота снежного покрова, см. При наведении курсора мыши на число - состояние снежного покрова и степень покрытия местности в баллах.